TimeEST,TemperatureF,Dew PointF,Humidity,Sea Level PressureIn,VisibilityMPH,Wind Direction,Wind SpeedMPH,Gust SpeedMPH,PrecipitationIn,Events,Conditions,WindDirDegrees,DateUTC
12:51 AM,21.0,5.0,50,30.35,10.0,NW,6.9,-,N/A,,Clear,310,2013-02-07 05:51:00
1:51 AM,19.9,5.0,52,30.35,10.0,West,5.8,-,N/A,,Clear,280,2013-02-07 06:51:00
2:51 AM,19.9,5.0,52,30.37,10.0,West,8.1,-,N/A,,Clear,270,2013-02-07 07:51:00
3:51 AM,21.0,1.0,42,30.38,10.0,West,12.7,-,N/A,,Clear,270,2013-02-07 08:51:00
4:51 AM,19.0,1.9,47,30.41,10.0,WNW,6.9,-,N/A,,Clear,290,2013-02-07 09:51:00
5:51 AM,18.0,3.0,52,30.43,10.0,West,5.8,-,N/A,,Clear,260,2013-02-07 10:51:00
6:51 AM,18.0,3.0,52,30.45,10.0,Calm,Calm,-,N/A,,Scattered Clouds,0,2013-02-07 11:51:00
7:51 AM,19.0,5.0,54,30.49,10.0,NW,5.8,-,N/A,,Mostly Cloudy,310,2013-02-07 12:51:00
8:51 AM,21.9,3.9,46,30.51,10.0,NW,4.6,-,N/A,,Mostly Cloudy,320,2013-02-07 13:51:00
9:51 AM,24.1,3.0,40,30.52,10.0,North,6.9,-,N/A,,Mostly Cloudy,10,2013-02-07 14:51:00
10:51 AM,26.1,1.0,34,30.52,10.0,NNE,6.9,-,N/A,,Mostly Cloudy,20,2013-02-07 15:51:00
11:51 AM,28.0,1.0,31,30.50,10.0,Variable,3.5,-,N/A,,Mostly Cloudy,0,2013-02-07 16:51:00
12:51 PM,28.9,1.9,32,30.48,10.0,East,3.5,-,N/A,,Scattered Clouds,100,2013-02-07 17:51:00
1:51 PM,30.0,1.0,29,30.46,10.0,Calm,Calm,-,N/A,,Scattered Clouds,0,2013-02-07 18:51:00
2:51 PM,32.0,-0.0,26,30.45,10.0,Calm,Calm,-,N/A,,Mostly Cloudy,0,2013-02-07 19:51:00
3:51 PM,30.9,1.9,29,30.45,10.0,SSE,4.6,-,N/A,,Mostly Cloudy,150,2013-02-07 20:51:00
4:51 PM,30.0,1.0,29,30.44,10.0,Calm,Calm,-,N/A,,Mostly Cloudy,0,2013-02-07 21:51:00
5:51 PM,30.0,1.9,30,30.45,10.0,Calm,Calm,-,N/A,,Mostly Cloudy,0,2013-02-07 22:51:00
6:51 PM,30.0,3.9,33,30.45,10.0,Calm,Calm,-,N/A,,Overcast,0,2013-02-07 23:51:00
7:51 PM,30.0,6.1,36,30.44,10.0,East,4.6,-,N/A,,Overcast,100,2013-02-08 00:51:00
8:51 PM,28.9,7.0,40,30.45,10.0,SE,3.5,-,N/A,,Mostly Cloudy,140,2013-02-08 01:51:00
9:51 PM,26.1,10.0,51,30.45,10.0,SSE,6.9,-,N/A,,Scattered Clouds,150,2013-02-08 02:51:00
10:51 PM,26.1,10.0,51,30.45,10.0,SE,3.5,-,N/A,,Scattered Clouds,140,2013-02-08 03:51:00
11:51 PM,27.0,10.0,49,30.43,10.0,ESE,8.1,-,N/A,,Mostly Cloudy,110,2013-02-08 04:51:00